Погода в Речках

Украина / Сумская область     51°07′08″N   34°29′49″E
темп.,
°C
ветер,
м/с
пор.,
м/с
влажн.,
%
обл.,
%
осадки,
мм/ч
давл.,
гПа
погр.,
м
7 июля, чт
чт700:00+23юв375752 0.0 1012111
03:00+20ююв48572 0.0 1011121
06:00+21ююв3459100 0.0 101186
09:00+22ююз226277 0.0 101267
12:00+29з334657 0.0 10121261
15:00+29зсз3348100 0.0 10121477
18:00+24сз797210 0.4 1013502
21:00+18юв1394100 4.0 1016119
8 июля, пт
пт800:00+17с479466 0.9 1015147
03:00+16ссз2396100 0.9 101677
06:00+16ссв36957 0.3 1016189
09:00+21ссв5578100 0.4 1016492
12:00+24ссв4564100 0.0 1016880
15:00+27с4455100 0.0 10151421
18:00+25с566228 0.0 1014730
21:00+20ссв4787100 1.4 1014121
9 июля, сб
сб900:00+18с369672 1.1 1014111
03:00+17с3597100 1.8 1014109
06:00+17с4696100 0.3 1013160
09:00+21ссв4481100 0.3 1013370
12:00+22ссз4575100 0.0 1012440
15:00+27ссв445192 0.0 10101073
18:00+27ссв555546 0.0 1009958
21:00+19сз2690100 3.8 1010106
10 июля, вс
вс1000:00+16сз3788100 10.5 1009103
03:00+16св2391100 10.7 100870
06:00+16св349265 0.0 1008103
09:00+21в127497 0.3 1007468
12:00+26в1157100 0.0 1007896
15:00+26ю1351100 0.0 10061398
18:00+17св3591100 5.6 1006132
21:00+16св239274 6.7 100651
11 июля, пн
пн1100:00+16в3796100 2.3 1006229
03:00+16ссв51096100 5.3 1004306
06:00+16с3598100 1.9 1003231
09:00+17зсз2296100 2.6 1003268
12:00+16зсз5797100 2.1 1004455
15:00+14зсз81595100 3.1 1006610
18:00+14зсз51292100 0.8 1008606
21:00+13ююз3395100 0.8 101044